North Adams, MA

9:07 AM EST on January 17, 2018 (GMT -0500)
Harriman And West

Weather History for KAQW - November, 2011

Change the Weather History Date:

Friday, November 25, 2011

  Actual Average Record
Temperature  
Mean Temperature 42 °F -  
Max Temperature 57 °F - - ()
Min Temperature 26 °F - - ()
Degree Days  
Heating Degree Days 24    
Moisture  
Dew Point 29 °F    
Average Humidity 81    
Maximum Humidity 96    
Minimum Humidity 39    
Precipitation  
Precipitation 0.00 in - - ()
Sea Level Pressure  
Sea Level Pressure 30.10 in    
Wind  
Wind Speed 1 mph (West)    
Max Wind Speed 12 mph    
Max Gust Speed -    
Visibility 6 miles    
Events Fog    
Averages and records for this station are not official NWS values.
T = Trace of Precipitation, MM = Missing Value Source: NWS Daily Summary

Daily Weather History Graph

Daily Weather History Graph

Search for Another Location

Airport or City:

Trip Planner

Search our weather history database for the weather conditions in past years. The results will help you decide how hot, cold, wet, or windy it might be!

Date:

Astronomy

Nov. 25, 2011 Rise Set
Actual Time 6:56 AM EST 4:22 PM EST
Civil Twilight 6:25 AM EST 4:53 PM EST
Nautical Twilight 5:50 AM EST 5:28 PM EST
Astronomical Twilight 5:16 AM EST 6:02 PM EST
Moon 7:22 AM EST (11/25) 4:46 PM EST (11/25)
Length of Visible Light 10h 28m
Length of Day
9h 26m
New Moon, 0% of the Moon is Illuminated
Nov 25
New Moon
Dec 2
First Quarter
Dec 10
Full
Dec 17
Last Quarter
Dec 24
New

Hourly Weather History & Observations

Time (EST) Temp. Windchill Dew Point Humidity Pressure Visibility Wind Dir Wind Speed Gust Speed Precip Events Conditions
12:29 AM 28.4 °F - 26.6 °F 93% 30.11 in 0.2 mi Calm Calm - N/A Fog Light Freezing Fog
12:52 AM 28.9 °F - 28.0 °F 96% 30.14 in 0.2 mi Calm Calm - N/A Fog Light Freezing Fog
1:52 AM 28.9 °F - 28.0 °F 96% 30.14 in 0.2 mi Calm Calm - N/A Fog Light Freezing Fog
2:25 AM 28.4 °F - 26.6 °F 93% 30.12 in 0.2 mi Calm Calm - N/A Fog Light Freezing Fog
2:52 AM 28.0 °F - 26.1 °F 92% 30.14 in 0.2 mi Calm Calm - N/A Fog Light Freezing Fog
3:52 AM 28.0 °F - 25.0 °F 88% 30.13 in 1.0 mi Calm Calm - N/A   Mist
4:16 AM 28.4 °F - 24.8 °F 86% 30.11 in 0.2 mi Calm Calm - N/A Fog Light Freezing Fog
4:27 AM 28.4 °F - 24.8 °F 86% 30.11 in 0.2 mi Calm Calm - N/A Fog Light Freezing Fog
4:43 AM 26.6 °F - 24.8 °F 93% 30.11 in 1.0 mi Calm Calm - N/A   Mist
4:52 AM 27.0 °F - 25.0 °F 92% 30.14 in 1.0 mi Calm Calm - N/A   Mist
4:57 AM 26.6 °F - 24.8 °F 93% 30.11 in 2.0 mi Calm Calm - N/A   Scattered Clouds
5:04 AM 26.6 °F - 24.8 °F 93% 30.11 in 6.0 mi Calm Calm - N/A   Scattered Clouds
5:52 AM 27.0 °F 21.6 °F 24.1 °F 89% 30.14 in 7.0 mi West 4.6 mph - N/A   Clear
6:52 AM 27.0 °F 23.0 °F 24.1 °F 89% 30.14 in 7.0 mi West 3.5 mph - N/A   Clear
7:52 AM 30.0 °F 25.2 °F 28.0 °F 92% 30.15 in 5.0 mi WNW 4.6 mph - N/A   Clear
8:52 AM 32.0 °F 28.7 °F 30.9 °F 96% 30.13 in 6.0 mi WNW 3.5 mph - N/A   Clear
9:52 AM 44.1 °F 42.5 °F 37.0 °F 76% 30.12 in 10.0 mi West 3.5 mph - N/A   Clear
11:52 AM 51.1 °F - 34.0 °F 52% 30.09 in 10.0 mi Calm Calm - N/A   Clear
12:52 PM 55.9 °F - 34.0 °F 44% 30.06 in 10.0 mi West 11.5 mph - N/A   Clear
1:52 PM 57.9 °F - 33.1 °F 39% 30.05 in 10.0 mi Variable 4.6 mph - N/A   Clear
2:52 PM 57.0 °F - 32.0 °F 39% 30.04 in 10.0 mi WNW 4.6 mph - N/A   Clear
3:52 PM 54.0 °F - 32.0 °F 43% 30.04 in 10.0 mi West 3.5 mph - N/A   Clear
4:52 PM 45.0 °F - 33.1 °F 63% 30.06 in 10.0 mi Calm Calm - N/A   Clear
5:52 PM 37.9 °F - 33.1 °F 83% 30.08 in 10.0 mi Calm Calm - N/A   Clear
6:52 PM 36.0 °F - 32.0 °F 86% 30.08 in 10.0 mi Calm Calm - N/A   Clear
7:52 PM 34.0 °F - 30.0 °F 85% 30.07 in 10.0 mi Calm Calm - N/A   Clear
8:52 PM 32.0 °F - 28.9 °F 88% 30.10 in 10.0 mi Calm Calm - N/A   Clear
9:52 PM 30.9 °F - 28.0 °F 89% 30.10 in 10.0 mi Calm Calm - N/A   Clear
10:52 PM 30.0 °F - 27.0 °F 88% 30.09 in 9.0 mi Calm Calm - N/A   Clear
11:52 PM 30.0 °F - 27.0 °F 88% 30.10 in 9.0 mi Calm Calm - N/A   Clear